[[{"header":{"parameterUnit":"m.s-1","parameterCategory":1,"la1":30.2991,"la2":30.254,"lo1":-89.0895,"lo2":-89.0444,"dy":0.0017,"dx":0.0017,"nx":28,"ny":28,"refTime":"2024-06-30T09:00:00:Z","depth":0,"parameterNumber":2,"parameterNumberName":"U-component_of_WINDS"},"data":[0,0,0,0,0,0,0,0,0,0,0,0,0,0,0,0,0,0,0,0,0,0,0,0,0,0,0,0,0,0,0,0,0,0,0,0,0,0,0,0,0,0,0,0,0,0,0,0,0,0,0,0,0,0,0,0,0,0,1.0195,1.0196,0,1.0272,1.0273,1.0274,1.0304,1.0304,1.0304,1.0304,1.038,1.0382,1.0384,0,0,0,0,0,0,0,0,0,0,0,0,0,1.0072,1.0074,1.0195,1.0196,1.0197,1.0272,1.0273,1.0274,1.0304,1.0304,1.0304,1.0303,1.0379,1.0382,1.0384,0,0,0,0,0,0,0,0,0,0,0,0,0,1.0135,1.0075,1.0195,1.0221,1.0224,1.0272,1.0273,1.0274,1.0304,1.0304,1.0304,1.0303,1.0378,1.0382,1.0385,1.0411,0,0,1.0395,1.0396,0,0,0,0,0,0,0,0,1.0131,1.0139,1.0216,1.0219,1.0223,1.0278,1.0258,1.032,1.0304,1.0274,1.0304,1.0303,1.0346,1.0352,1.0367,1.0415,1.0418,1.0395,1.0397,1.0399,1.04,0,0,0,0,0,0,0,1.0127,1.0136,1.0225,1.0217,1.0221,1.0228,1.0237,1.027,1.0311,1.0276,1.0279,1.0288,1.0348,1.0364,1.0369,1.0419,1.0395,1.0398,1.04,1.0402,1.0495,1.0496,0,0,0,0,0,0,1.0118,1.0132,1.0223,1.0228,1.0175,1.0231,1.024,1.0261,1.031,1.0318,1.0288,1.0289,1.0358,1.0365,1.0372,1.0408,1.0399,1.0402,1.0404,1.0495,1.0495,1.0496,0,0,0,0,0,0,1.0116,1.0126,1.022,1.0181,1.0193,1.0233,1.0256,1.0262,1.0278,1.0319,1.0326,1.0297,1.0358,1.0367,1.0402,1.0411,1.0403,1.0406,1.0494,1.0495,1.0496,1.0478,0,0,0,0,0,0,1.0112,1.0125,1.0135,1.0181,1.0195,1.0249,1.0256,1.0264,1.0284,1.0286,1.0329,1.0336,1.0359,1.0397,1.0405,1.0415,1.0409,1.0494,1.0495,1.0496,1.0478,1.0478,1.0478,0,0,0,0,0,1.0107,1.0126,1.0136,1.0147,1.0209,1.0249,1.0257,1.0284,1.0285,1.0296,1.0323,1.0335,1.0409,1.04,1.041,1.0421,1.0493,1.0494,1.0495,1.0478,1.0478,1.0478,0,0,0,0,0,0,1.0079,1.0133,1.0144,1.0178,1.0209,1.0254,1.0268,1.0283,1.0313,1.0314,1.0345,1.0354,1.0387,1.0407,1.0397,1.045,1.0452,1.0455,1.0435,1.0436,1.0436,1.043,1.0412,0,0,0,0,0,1.0077,1.0106,1.0151,1.0177,1.0192,1.0228,1.0246,1.0264,1.0297,1.031,1.0339,1.037,1.04,1.0419,1.0449,1.0482,1.0492,1.0494,1.0494,1.0494,1.0496,1.0517,1.0518,1.05,1.05,1.05,0,0,1.0073,1.0106,1.0121,1.0172,1.0198,1.0227,1.0238,1.0267,1.0289,1.0314,1.0349,1.0372,1.0408,1.0443,1.0459,1.0461,1.0504,1.0496,1.0495,1.0497,1.0518,1.052,1.0521,1.05,1.05,1.05,0,0,1.008,1.0107,1.0133,1.0159,1.02,1.0224,1.023,1.0274,1.029,1.0326,1.0346,1.0372,1.0424,1.045,1.0469,1.0489,1.0502,1.0498,1.0498,1.0518,1.0519,1.052,1.0528,1.053,1.05,1.05,1.05,0,1.0069,1.0113,1.0144,1.0173,1.0195,1.0221,1.0247,1.0271,1.0318,1.0333,1.0335,1.0401,1.0428,1.0469,1.0474,1.0489,1.0498,1.0493,1.0517,1.0518,1.052,1.0528,1.053,1.05,1.05,1.05,1.05,0,1.0099,1.0129,1.0145,1.0192,1.0216,1.0243,1.0278,1.0298,1.0315,1.0339,1.0377,1.041,1.0448,1.0459,1.0475,1.0504,1.0504,1.0511,1.0512,1.0521,1.0528,1.0531,1.0499,1.0499,1.0499,1.0499,0,0,1.0087,1.0153,1.0158,1.0181,1.0229,1.0253,1.0282,1.0321,1.0338,1.0371,1.0396,1.044,1.0448,1.0471,1.049,1.0507,1.0522,1.0512,1.0514,1.0513,1.0557,1.0551,1.0553,1.0532,1.0532,1.0533,1.0554,0,1.0101,1.0155,1.0184,1.0226,1.0255,1.0281,1.0307,1.0339,1.0363,1.0391,1.0418,1.0449,1.0456,1.047,1.0489,1.0516,1.0531,1.0515,1.0555,1.0556,1.0545,1.0557,1.0551,1.0569,1.0557,1.0557,1.0558,0,1.0123,1.0157,1.0202,1.0248,1.0262,1.0284,1.0323,1.035,1.0387,1.0403,1.043,1.045,1.0482,1.0483,1.0528,1.0517,1.0535,1.0552,1.0553,1.0557,1.0557,1.0562,1.0575,1.0577,1.0563,1.0562,1.0562,0,1.0111,1.0168,1.0203,1.0221,1.0276,1.0291,1.0315,1.0352,1.0374,1.0408,1.0423,1.046,1.048,1.0508,1.0538,1.0535,1.058,1.0583,1.0595,1.0594,1.0602,1.0601,1.0618,1.0614,1.0614,1.0614,1.0614,0,1.0122,1.0148,1.0198,1.0219,1.025,1.0284,1.0314,1.0339,1.0373,1.04,1.0425,1.0449,1.0487,1.0516,1.054,1.0574,1.0583,1.0597,1.0603,1.0595,1.0593,1.0606,1.0606,1.0615,1.0615,1.0615,1.0614,0,1.0113,1.0147,1.0187,1.0237,1.025,1.0271,1.0313,1.0335,1.0361,1.0395,1.0405,1.0446,1.0482,1.0515,1.0562,1.0578,1.0613,1.0621,1.0601,1.0604,1.0614,1.0612,1.0639,1.0645,1.0638,1.0638,1.0638,0,1.0117,1.0139,1.0192,1.0212,1.0236,1.0268,1.0291,1.0326,1.0349,1.0395,1.0412,1.045,1.0482,1.0539,1.0573,1.061,1.0618,1.0626,1.0624,1.0616,1.0619,1.0617,1.0619,1.0625,1.0625,1.0625,1.0625,0,1.0122,1.0139,1.0172,1.0212,1.024,1.0272,1.0306,1.0321,1.0362,1.0387,1.0425,1.0451,1.0501,1.0539,1.058,1.0604,1.0621,1.0625,1.063,1.0621,1.0609,1.0616,1.06,1.0624,1.0624,1.0624,1.0624,1.0624,1.012,1.0141,1.0182,1.0219,1.0248,1.028,1.0303,1.0334,1.0366,1.041,1.0429,1.0468,1.0507,1.0564,1.0589,1.062,1.0623,1.0629,1.0631,1.0632,1.0631,1.0605,1.0627,1.0627,1.0627,1.0627,1.0628,0,1.0127,1.0155,1.0189,1.0236,1.0265,1.028,1.0319,1.0342,1.0376,1.0411,1.0444,1.0488,1.0526,1.0564,1.0604,1.0621,1.063,1.0631,1.0629,1.0635,1.0625,1.0617,1.0623,1.0623,1.0623,1.0623,1.0623,1.0623,1.0133,1.017,1.0192,1.0243,1.0272,1.0311,1.0332,1.0361,1.039,1.0439,1.047,1.0496,1.0532,1.0575,1.0611,1.0621,1.0635,1.0633,1.0645,1.0635,1.0635,1.0635,1.0628,1.0635,1.0635,1.0652,1.0652,1.0652]},{"header":{"parameterUnit":"m.s-1","parameterCategory":1,"la1":30.2991,"la2":30.254,"lo1":-89.0895,"lo2":-89.0444,"dy":0.0017,"dx":0.0017,"nx":28,"ny":28,"refTime":"2024-06-30T09:00:00:Z","depth":0,"parameterNumber":3,"parameterNumberName":"V-component_of_WINDS"},"data":[0,0,0,0,0,0,0,0,0,0,0,0,0,0,0,0,0,0,0,0,0,0,0,0,0,0,0,0,0,0,0,0,0,0,0,0,0,0,0,0,0,0,0,0,0,0,0,0,0,0,0,0,0,0,0,0,0,0,0.1211,0.1211,0,0.1219,0.1219,0.1219,0.1214,0.1213,0.1213,0.1213,0.1219,0.122,0.122,0,0,0,0,0,0,0,0,0,0,0,0,0,0.1192,0.1192,0.1211,0.1211,0.1211,0.1219,0.1219,0.1219,0.1214,0.1213,0.1213,0.1213,0.1219,0.122,0.122,0,0,0,0,0,0,0,0,0,0,0,0,0,0.12,0.1192,0.1211,0.121,0.121,0.1219,0.1219,0.1219,0.1214,0.1213,0.1213,0.1213,0.1219,0.122,0.122,0.1231,0,0,0.1222,0.1222,0,0,0,0,0,0,0,0,0.12,0.1201,0.121,0.121,0.121,0.1215,0.1215,0.1223,0.1214,0.1212,0.1213,0.1213,0.1218,0.1219,0.1221,0.1232,0.1232,0.1222,0.1223,0.1223,0.1223,0,0,0,0,0,0,0,0.1199,0.12,0.1214,0.121,0.121,0.1209,0.1209,0.1216,0.1217,0.1212,0.1212,0.1213,0.1218,0.1221,0.1221,0.1232,0.1222,0.1223,0.1223,0.1223,0.1255,0.1255,0,0,0,0,0,0,0.1199,0.12,0.1214,0.1215,0.1204,0.1209,0.121,0.1214,0.1217,0.1217,0.1213,0.1213,0.122,0.122,0.1221,0.1236,0.1223,0.1223,0.1224,0.1254,0.1255,0.1255,0,0,0,0,0,0,0.1198,0.12,0.1214,0.1207,0.1209,0.121,0.1214,0.1214,0.1216,0.1218,0.1218,0.1216,0.1219,0.1221,0.123,0.1236,0.1224,0.1224,0.1254,0.1254,0.1255,0.1265,0,0,0,0,0,0,0.1198,0.12,0.1204,0.1207,0.1209,0.1222,0.1214,0.1214,0.1218,0.1217,0.122,0.122,0.1219,0.1229,0.123,0.1237,0.1225,0.1253,0.1254,0.1255,0.1264,0.1266,0.1268,0,0,0,0,0,0.1197,0.1205,0.1204,0.1206,0.1214,0.1222,0.1223,0.1222,0.1218,0.1223,0.1224,0.122,0.1235,0.123,0.1231,0.1238,0.1253,0.1254,0.1255,0.1263,0.1266,0.1268,0,0,0,0,0,0,0.1201,0.1206,0.1204,0.1214,0.1218,0.1221,0.1226,0.1225,0.1229,0.1228,0.1227,0.1228,0.1238,0.1239,0.1232,0.1251,0.1243,0.1245,0.1249,0.1252,0.1253,0.1253,0.1225,0,0,0,0,0,0.1204,0.121,0.1213,0.1221,0.1224,0.1225,0.1228,0.1228,0.1231,0.1233,0.1234,0.1238,0.1244,0.1248,0.1253,0.1264,0.1266,0.127,0.1272,0.1273,0.1275,0.1283,0.1286,0.1259,0.1259,0.1259,0,0,0.1208,0.1211,0.1215,0.1223,0.1225,0.1233,0.1226,0.1233,0.1239,0.1234,0.1243,0.1245,0.1249,0.126,0.1264,0.1261,0.1283,0.1275,0.1276,0.1277,0.1285,0.1287,0.1289,0.126,0.1259,0.1259,0,0,0.122,0.1222,0.123,0.1234,0.124,0.1241,0.1243,0.1247,0.1248,0.1258,0.1255,0.1261,0.1271,0.1275,0.1278,0.1294,0.1291,0.1296,0.1305,0.1313,0.1315,0.1317,0.1325,0.1327,0.1297,0.1297,0.1297,0,0.1224,0.1235,0.1235,0.1243,0.1247,0.1245,0.1254,0.1257,0.1263,0.1266,0.1262,0.1276,0.1279,0.1292,0.1296,0.1298,0.1301,0.1295,0.1315,0.1317,0.1319,0.1326,0.1329,0.1298,0.1297,0.1297,0.1297,0,0.1241,0.1249,0.1255,0.1263,0.1268,0.1276,0.1278,0.1283,0.1282,0.1284,0.1295,0.1298,0.1305,0.1308,0.1307,0.1322,0.132,0.1315,0.1308,0.1322,0.1329,0.1331,0.1298,0.1298,0.1298,0.1298,0,0,0.1254,0.1264,0.1266,0.1271,0.1278,0.1284,0.1293,0.1301,0.1306,0.1311,0.132,0.1329,0.1326,0.133,0.1329,0.1336,0.1351,0.1331,0.1332,0.1337,0.137,0.1374,0.1377,0.135,0.135,0.1351,0.1371,0,0.1267,0.1284,0.1286,0.1301,0.1309,0.1308,0.1316,0.1321,0.1324,0.1331,0.1334,0.1341,0.1336,0.1338,0.1345,0.1348,0.1358,0.1346,0.1358,0.1359,0.1359,0.1381,0.1384,0.1403,0.1373,0.1373,0.1374,0,0.1284,0.1292,0.1308,0.1317,0.132,0.1328,0.1337,0.1343,0.135,0.1352,0.1357,0.1356,0.1367,0.1359,0.1374,0.1366,0.1371,0.1374,0.1374,0.1376,0.1368,0.1384,0.1408,0.1412,0.1377,0.1377,0.1377,0,0.1294,0.1308,0.1321,0.1325,0.1334,0.134,0.1344,0.1351,0.1356,0.1364,0.1368,0.1376,0.1381,0.1388,0.139,0.1384,0.1405,0.1397,0.1408,0.1408,0.1412,0.1412,0.1439,0.1414,0.1414,0.1414,0.1413,0,0.1309,0.1319,0.1326,0.1333,0.1346,0.1348,0.136,0.1364,0.137,0.1379,0.1378,0.1387,0.1388,0.1397,0.1398,0.1412,0.1413,0.1416,0.1416,0.1416,0.1416,0.142,0.142,0.1414,0.1414,0.1414,0.1414,0,0.1322,0.1326,0.134,0.1349,0.1352,0.1361,0.1368,0.1376,0.138,0.1391,0.1394,0.1399,0.141,0.1413,0.1424,0.1426,0.1442,0.1441,0.144,0.1441,0.1452,0.1451,0.1483,0.1488,0.1458,0.1458,0.1458,0,0.1331,0.134,0.1351,0.1357,0.1362,0.1372,0.1379,0.1382,0.1389,0.1399,0.1406,0.1417,0.1426,0.1444,0.1449,0.1459,0.1458,0.1469,0.1459,0.1461,0.146,0.146,0.1462,0.147,0.1471,0.1471,0.1471,0,0.1348,0.1351,0.1361,0.1372,0.1381,0.139,0.1398,0.1403,0.1408,0.1416,0.1428,0.1435,0.145,0.1461,0.1472,0.1476,0.1475,0.1474,0.1478,0.1478,0.1479,0.1481,0.1447,0.1473,0.1473,0.1473,0.1473,0.1473,0.136,0.1369,0.1379,0.1391,0.1398,0.1407,0.1416,0.1422,0.1432,0.1445,0.1446,0.1459,0.1468,0.1483,0.1488,0.1499,0.1496,0.15,0.1501,0.1503,0.1505,0.1477,0.1501,0.1501,0.1501,0.1501,0.1501,0,0.1379,0.1386,0.1397,0.141,0.142,0.142,0.143,0.1438,0.1451,0.146,0.147,0.1485,0.1497,0.1503,0.1515,0.1523,0.1523,0.1526,0.1526,0.1528,0.1506,0.1503,0.1526,0.1526,0.1526,0.1526,0.1526,0.1526,0.1389,0.1405,0.1409,0.1429,0.1436,0.1451,0.1457,0.1466,0.1473,0.1491,0.1501,0.1506,0.1515,0.1528,0.154,0.1541,0.1546,0.155,0.1552,0.1531,0.1529,0.1526,0.1524,0.1551,0.1551,0.1573,0.1573,0.1573]}]]